Theta_e
325 324 313 309 313 312 310 308 293 295 293 290 288 290 290 298 302 300 298 300 299 302 308 310 309 311 308 305 307 308 306 306 306 301 299 304 311 312 316 318 325 325 324 324 325 329 333 338 338 340 339 339 339 339 339 339 338 338 338 337 337 336 337 337 336 336 335 335 336 337 339 339 341 342 342 343 343 343 343 342 342 341 342 341 341 341 340 340 339 339 339 339 339 339 339 339 338
324 314 310 309 310 307 304 304 294 292 289 288 290 290 293 298 300 297 298 299 299 303 305 306 305 307 305 305 305 307 304 305 305 305 306 307 311 313 317 318 325 324 324 324 325 327 331 334 338 340 339 340 339 339 339 338 338 338 338 338 338 338 338 337 337 337 336 336 338 339 339 340 341 342 342 342 342 342 343 342 341 341 340 340 340 340 339 339 339 338 338 338 338 338 338 337 336
317 311 305 309 305 306 303 301 292 286 288 286 287 292 296 296 297 301 302 302 302 304 305 306 307 304 306 307 305 305 302 302 302 304 305 311 312 317 318 320 325 324 324 324 325 327 330 333 337 339 339 339 339 339 339 338 338 338 338 338 339 338 338 338 338 339 339 339 339 339 339 341 341 342 342 341 341 341 342 341 340 340 340 339 339 339 339 338 338 338 337 337 337 336 336 335 335
313 309 303 305 300 303 300 294 287 287 286 285 286 291 292 296 297 300 301 302 301 305 307 306 305 305 306 303 306 305 302 302 305 305 305 310 312 319 318 322 324 324 323 325 326 328 330 334 337 339 339 340 339 339 339 338 338 338 338 338 339 339 338 339 339 339 339 339 339 339 340 341 341 341 341 341 340 340 340 340 339 338 339 338 337 338 337 337 337 337 337 336 336 335 334 334 333
312 313 304 302 299 297 298 295 288 288 287 284 286 291 294 297 298 299 299 300 302 305 305 305 302 303 302 302 302 304 304 304 304 306 305 309 311 316 319 323 324 323 323 324 326 329 330 335 337 339 339 340 339 339 338 338 338 338 338 339 338 338 338 339 339 339 339 339 339 339 339 340 340 341 340 340 340 339 339 338 338 337 338 337 337 336 336 335 336 335 335 335 333 333 331 332 332
306 306 308 304 297 300 296 290 287 288 292 290 288 290 294 296 298 298 298 301 303 304 306 304 302 303 301 299 299 301 306 303 306 306 307 312 312 315 319 322 322 322 323 325 327 329 329 334 337 340 340 339 338 338 337 338 337 338 338 338 338 338 338 338 338 339 339 339 339 339 340 340 340 339 340 340 339 339 338 337 337 337 336 335 335 335 334 333 333 333 332 332 331 330 330 330 331
308 302 301 300 298 298 291 288 287 290 295 294 292 295 298 295 296 300 299 301 303 304 305 306 301 302 300 299 300 303 302 306 306 308 311 313 313 315 320 321 322 322 324 325 327 329 330 334 337 340 339 339 339 338 337 337 337 337 337 337 338 337 337 338 338 338 337 338 338 339 339 339 339 339 338 339 338 338 337 337 336 335 334 333 333 333 332 331 331 331 330 330 330 330 329 329 329
312 303 298 293 291 292 287 287 288 289 292 296 296 298 299 297 297 300 299 299 298 303 303 303 301 303 300 300 300 302 302 305 308 310 311 312 314 316 319 321 321 322 324 326 327 328 330 334 337 339 339 338 338 338 337 337 336 336 337 337 337 338 337 338 337 337 337 337 337 338 338 338 338 338 338 338 337 337 336 335 334 333 332 332 332 331 330 330 330 330 330 330 330 329 328 328 328
306 302 299 292 289 287 285 287 289 291 292 293 295 299 304 299 298 300 298 300 300 301 301 302 301 300 299 298 298 300 301 307 309 311 311 313 314 317 321 320 321 321 323 325 326 328 330 333 335 337 338 337 337 337 337 337 336 336 336 336 336 337 337 337 337 336 336 337 337 337 338 337 337 337 336 337 336 336 335 334 333 332 331 330 330 330 330 329 329 329 329 329 329 328 328 327 327
303 301 294 292 289 287 285 285 286 290 293 296 297 298 298 297 297 299 298 296 300 302 302 303 302 302 300 298 298 300 301 305 309 310 311 313 314 317 319 320 322 322 321 322 323 326 328 328 333 334 335 336 336 336 335 336 335 335 335 335 335 335 336 337 336 336 336 336 336 336 337 336 336 336 335 335 335 334 333 332 331 331 330 329 329 329 329 328 329 328 328 328 328 328 327 326 326
300 298 297 292 287 284 285 285 287 290 290 292 293 295 298 297 297 295 297 297 300 300 301 302 301 301 298 298 296 300 303 305 308 308 311 312 313 315 316 320 321 322 321 320 320 323 324 326 328 331 331 332 333 333 334 334 334 335 335 335 334 334 335 336 336 335 335 335 335 335 335 335 335 335 334 334 334 332 332 331 330 329 329 329 328 328 328 328 328 328 328 328 327 327 326 325 325
297 295 295 288 286 286 285 284 288 289 290 290 292 294 295 296 298 299 297 298 299 299 301 303 302 302 298 295 294 296 300 303 306 309 308 308 311 312 314 316 319 320 320 318 317 318 319 322 324 325 329 328 329 330 331 332 333 334 333 333 333 333 333 333 334 334 334 333 333 333 333 333 333 333 333 332 332 331 331 330 329 328 328 328 327 327 327 327 328 328 328 328 327 326 325 324 323
300 292 289 287 284 284 284 284 285 288 288 289 293 296 296 297 299 299 299 299 299 300 300 304 302 303 299 296 295 296 301 304 305 305 304 306 307 310 313 313 314 316 316 316 318 316 318 318 319 322 325 327 327 327 328 329 331 332 332 332 333 333 333 333 332 332 332 332 331 331 331 331 330 331 331 331 331 330 330 329 328 328 327 327 326 326 326 327 327 327 327 327 326 325 324 322 321
300 294 291 289 285 284 284 284 283 287 287 289 291 295 298 299 298 300 299 299 298 299 303 305 302 303 299 297 295 295 300 304 304 302 304 307 311 313 313 311 311 312 314 316 316 314 315 315 317 319 321 324 326 325 326 326 327 329 329 329 330 331 331 331 331 331 330 329 328 327 328 329 330 330 329 329 329 328 328 328 328 327 327 326 326 326 326 325 326 325 326 327 325 323 322 320 319
300 295 292 285 284 284 284 286 286 286 287 289 294 294 297 298 300 298 301 298 300 303 304 304 303 302 297 300 295 294 301 304 302 302 305 308 311 312 312 312 311 311 313 314 314 314 313 314 315 315 317 320 323 324 324 325 323 324 325 326 327 328 328 328 328 326 324 323 322 321 321 322 322 322 321 322 325 326 327 327 326 327 326 326 326 326 325 325 325 325 325 324 323 321 320 318 317
299 292 287 287 285 285 288 286 285 286 288 289 293 295 294 294 297 300 299 301 299 301 304 303 303 301 300 299 299 298 299 302 300 303 305 307 309 310 311 311 311 311 312 313 313 313 313 313 313 314 316 317 319 321 323 323 321 321 321 322 322 322 322 322 321 319 318 318 318 317 317 314 315 316 318 315 319 319 321 320 323 327 325 325 324 324 323 323 323 324 324 323 322 319 318 316 315
297 297 289 285 287 284 287 286 285 287 287 290 291 294 293 293 295 298 299 301 301 300 299 297 300 297 296 298 297 296 301 302 303 303 304 305 308 308 308 309 310 311 312 312 313 313 312 313 312 313 314 315 317 318 318 319 319 319 318 318 318 317 317 317 316 316 315 314 314 314 312 309 309 310 311 312 313 313 317 318 319 323 323 323 322 322 322 321 321 322 322 321 319 316 314 312 311
301 294 288 288 286 286 287 290 288 289 290 292 293 292 293 291 292 298 300 298 296 297 299 297 295 295 296 296 297 299 300 300 302 304 303 303 305 307 307 309 310 311 311 311 311 311 312 312 312 311 311 312 315 316 316 316 316 316 315 315 314 314 314 313 311 309 308 309 310 307 306 306 306 306 306 308 309 310 313 315 317 320 320 320 318 320 321 320 320 320 320 319 315 310 305 296 300
297 288 287 291 287 292 291 291 292 290 290 291 293 294 293 293 294 296 295 292 295 297 297 296 297 298 296 297 299 300 299 299 301 304 303 302 303 306 307 308 309 311 310 310 310 310 311 311 310 309 309 310 313 314 314 313 314 313 313 312 310 310 308 306 305 305 304 304 304 304 304 303 304 304 304 305 306 311 310 312 313 316 319 318 318 316 318 318 318 316 314 312 309 303 292 290 290
296 294 291 292 290 292 292 293 293 292 294 294 293 295 292 292 294 297 294 294 292 294 294 296 296 299 300 295 297 298 299 299 301 303 303 303 303 305 307 308 309 311 311 311 310 309 309 310 309 309 309 309 310 310 312 312 312 311 310 309 308 306 304 303 302 302 302 302 302 302 302 303 303 303 303 302 301 298 300 306 307 307 308 311 312 310 314 314 314 312 307 304 298 292 288 288 288
293 293 293 291 292 293 294 293 294 295 293 293 293 294 293 291 292 295 292 292 292 292 296 299 299 301 302 296 298 298 298 298 299 301 302 302 303 304 307 309 309 311 312 311 310 309 308 308 309 308 308 309 309 308 309 310 310 310 308 307 306 304 302 301 300 300 300 300 300 300 301 301 299 298 298 297 295 295 295 295 296 296 297 297 300 294 293 293 292 289 289 289 287 288 287 286 287
292 293 296 294 290 291 294 294 296 295 295 292 292 291 295 293 293 293 293 292 293 293 298 300 302 303 302 296 298 298 297 297 298 300 301 302 302 303 304 306 308 310 311 310 310 309 308 307 307 307 307 307 308 309 308 307 308 307 306 305 304 302 301 299 299 298 298 298 298 299 299 298 297 296 295 294 292 293 293 292 292 293 293 292 292 289 288 287 286 286 286 286 285 285 285 285 286
295 295 293 293 294 295 293 294 293 294 294 294 292 294 292 293 291 290 292 294 295 296 299 301 303 304 299 297 298 297 297 297 298 299 301 301 302 303 304 305 306 308 309 310 311 309 307 306 305 304 305 306 306 307 307 307 307 306 305 304 303 301 299 298 298 297 296 296 297 298 298 296 295 294 293 292 291 290 290 289 289 289 289 288 288 287 285 285 285 285 284 284 283 284 283 283 283
295 294 291 294 294 295 294 295 294 292 292 293 294 291 291 291 291 290 291 296 297 294 295 297 298 297 297 297 298 298 298 298 298 300 301 302 303 303 304 304 305 306 308 310 310 310 307 306 305 304 303 304 304 305 305 304 304 304 303 303 302 301 299 298 297 296 295 295 296 297 297 295 294 293 291 290 287 287 287 287 286 287 286 285 286 286 285 284 284 284 284 283 283 283 283 282 282
294 292 292 295 296 295 294 295 294 292 291 292 290 291 293 291 292 290 294 296 293 296 296 294 295 295 295 297 297 298 298 298 298 299 300 302 302 302 301 303 303 304 306 308 310 309 307 306 305 304 303 303 302 303 304 303 302 302 302 301 300 301 299 297 295 294 294 294 294 295 295 293 292 291 290 288 286 286 286 286 285 284 284 284 285 284 284 284 283 283 283 282 282 281 281 281 281
291 294 294 294 295 294 292 291 290 289 290 290 289 289 290 290 289 288 293 295 293 295 295 292 294 294 295 297 298 298 298 298 299 298 299 301 299 299 300 301 302 302 305 307 308 309 308 306 304 304 303 303 301 301 302 301 301 300 300 300 299 299 297 294 294 293 293 293 293 293 293 293 292 290 288 286 286 285 284 284 284 283 283 283 283 284 283 283 283 282 282 282 281 281 281 283 281
290 289 290 290 291 289 288 289 289 287 287 287 289 289 288 289 288 290 294 292 292 291 293 290 293 295 296 297 298 298 299 299 299 300 298 297 298 299 300 300 301 303 303 304 306 308 308 306 304 303 303 303 300 301 301 301 300 300 299 298 298 297 294 293 293 292 291 292 292 291 291 291 290 288 287 286 285 284 283 283 283 283 282 282 283 282 283 282 281 281 282 281 281 280 280 280 280
288 288 288 289 287 287 287 286 287 286 290 287 289 288 289 287 287 290 290 289 290 291 291 291 291 293 294 295 296 298 298 300 300 297 298 297 297 298 299 300 301 302 302 303 305 307 307 306 304 303 302 302 300 301 300 299 299 299 298 296 296 294 292 292 292 291 291 290 291 290 290 289 290 287 286 285 284 283 282 282 282 282 281 281 282 282 282 282 281 281 280 281 280 280 279 279 280
288 288 286 286 286 288 288 287 288 287 288 287 287 287 287 287 288 293 291 289 290 290 291 291 290 292 292 293 294 295 297 298 297 298 299 299 300 300 299 301 301 301 303 303 303 303 305 306 305 303 302 301 300 300 299 298 298 298 297 296 295 293 292 291 291 290 290 290 290 290 289 289 288 287 286 285 286 282 282 281 281 282 281 282 282 282 282 281 281 281 280 280 280 279 279 279 280
287 288 284 285 284 285 288 287 287 287 288 287 290 282 287 290 293 295 289 291 289 290 288 289 290 290 291 291 293 294 295 295 297 298 300 300 300 299 299 300 301 301 302 301 301 302 304 305 305 303 302 301 300 300 298 297 297 297 296 295 294 292 291 291 290 290 290 290 289 289 289 289 288 287 286 285 283 283 282 282 282 281 281 282 282 283 282 283 282 282 281 282 283 281 280 279 279
285 284 284 283 280 282 286 287 286 286 287 287 291 282 286 290 292 291 287 288 289 289 289 290 290 290 291 291 291 293 294 295 297 298 298 298 298 298 299 299 300 301 301 300 301 302 302 302 303 303 301 301 300 299 298 296 296 295 294 293 293 292 291 291 290 289 289 290 289 289 289 289 287 287 287 285 284 283 284 283 284 282 282 283 284 284 284 283 283 282 283 282 280 280 279 280 278
282 283 281 279 281 284 285 285 286 285 287 286 288 281 285 289 291 286 284 284 287 287 287 288 288 288 288 288 288 289 291 292 293 294 295 296 297 298 299 299 299 300 300 301 300 300 300 300 301 301 300 300 299 299 298 296 295 295 293 293 292 291 291 290 290 289 289 290 289 288 289 289 287 287 286 286 284 284 284 283 283 283 283 284 284 283 283 283 282 282 282 281 280 279 279 278 278
279 282 280 280 279 282 281 284 285 286 287 288 288 282 283 287 285 283 284 284 285 285 285 284 284 286 287 288 288 289 290 290 291 293 295 296 297 298 299 299 299 299 300 300 300 299 299 298 299 299 298 299 299 298 297 296 294 294 293 292 292 291 291 290 290 289 289 289 289 289 289 289 287 287 286 286 285 284 284 284 283 284 284 283 283 283 283 283 282 282 281 282 281 279 279 278 278
279 280 279 280 279 280 278 281 285 285 286 284 285 283 286 289 285 285 287 287 286 285 286 286 286 285 286 286 286 287 288 289 290 292 293 294 296 297 299 299 298 298 299 300 299 299 299 298 297 298 297 297 297 297 296 295 293 293 292 291 292 291 291 290 289 289 288 289 289 289 289 289 287 287 286 286 285 285 284 284 283 283 283 283 283 282 281 282 282 282 281 280 280 279 278 278 278
278 278 278 279 280 280 281 280 282 287 286 285 283 284 286 288 289 288 288 286 286 287 289 289 289 288 288 286 285 286 287 288 290 292 293 294 295 296 297 297 297 297 298 299 298 299 298 297 295 296 295 294 294 294 293 292 292 292 292 291 291 290 290 289 289 289 289 288 289 288 289 289 287 287 286 286 285 285 284 283 283 283 283 283 282 281 281 282 282 281 281 279 279 277 277 278 278
280 280 279 278 278 279 279 282 283 285 284 284 283 283 286 288 290 287 288 290 289 289 288 287 287 288 288 288 287 287 288 288 291 291 291 293 294 294 295 295 295 296 296 298 297 297 297 296 295 294 294 293 292 290 290 290 290 290 289 289 289 289 288 288 288 288 287 287 288 288 288 288 287 286 286 286 285 285 284 284 284 284 283 283 282 281 281 282 281 280 279 279 278 279 279 278 279
282 280 280 281 281 282 281 281 285 284 284 284 285 285 285 287 288 287 288 288 287 289 288 288 288 288 288 288 289 289 288 289 292 290 291 292 292 293 294 294 294 294 295 296 296 296 297 297 295 293 293 292 291 289 289 289 288 288 288 288 288 288 287 287 287 287 286 287 288 288 288 288 287 287 286 285 285 285 284 284 283 283 283 283 282 282 282 281 281 280 280 281 280 279 279 279 278
281 280 279 280 280 280 283 284 285 283 283 283 282 283 285 287 289 289 290 287 287 288 289 288 288 288 288 288 289 289 290 289 288 288 288 288 290 290 292 293 293 292 293 294 295 296 296 296 295 294 292 292 292 291 290 289 289 290 289 288 288 288 287 287 286 287 287 287 287 288 288 287 287 286 286 285 285 284 283 283 283 282 282 282 282 282 281 283 282 281 281 280 281 280 279 279 279
281 280 279 279 281 282 283 283 285 284 283 283 284 283 284 286 288 288 285 287 289 289 289 290 288 287 287 288 288 289 289 289 288 287 287 287 288 289 290 291 292 294 293 294 295 295 294 294 295 294 292 291 292 291 290 289 288 287 288 286 288 286 287 288 287 287 287 287 287 287 287 287 287 286 286 286 285 284 284 283 283 283 282 283 282 281 282 281 281 281 281 281 280 280 280 280 279
280 280 279 279 283 280 278 280 281 282 284 278 277 278 282 284 283 284 285 286 287 288 287 286 287 287 288 288 287 287 286 287 287 287 287 287 286 287 288 290 291 291 291 291 292 294 294 294 294 293 292 291 291 290 290 288 287 286 286 286 286 285 284 286 287 287 287 286 286 287 287 287 287 286 286 285 285 285 284 283 283 283 282 283 282 281 281 281 281 281 281 281 281 279 279 279 280
281 281 281 280 280 281 281 280 279 280 280 281 281 280 281 283 280 280 281 279 281 284 285 285 286 286 285 284 284 284 284 284 284 285 285 285 285 286 288 290 289 290 291 291 292 293 294 293 292 292 291 290 289 289 288 287 287 286 285 285 285 284 285 284 283 284 285 286 286 286 286 286 287 286 286 285 285 284 284 284 283 283 282 282 282 282 281 282 281 282 282 281 281 280 279 279 279
279 281 282 282 283 281 281 281 280 276 276 279 280 270 274 276 277 278 279 277 279 278 281 284 285 283 281 281 281 282 282 281 282 282 283 283 284 285 286 287 288 288 289 290 290 291 290 290 290 289 288 288 287 287 287 287 287 286 285 284 282 283 282 282 282 282 283 284 285 286 286 286 286 286 285 285 285 285 284 284 283 283 282 283 283 282 282 282 281 281 281 282 281 281 280 279 278
275 277 282 283 282 281 280 279 278 269 269 277 279 273 271 275 277 276 276 277 280 281 280 283 281 281 280 280 280 280 280 280 281 282 282 282 283 283 284 285 287 288 288 287 287 287 287 288 288 288 287 287 287 287 287 287 286 286 286 286 285 285 284 284 285 285 285 285 286 285 285 286 286 285 285 285 285 284 284 283 283 283 283 282 283 282 282 282 282 282 281 281 281 281 280 279 279
275 277 279 281 280 279 279 279 278 275 276 277 276 275 268 272 277 276 277 277 278 279 281 280 280 279 279 279 279 278 279 279 280 280 281 281 282 282 285 285 286 286 284 285 285 285 285 286 286 286 286 287 287 287 287 287 287 286 285 285 286 285 285 284 285 285 285 286 285 285 285 285 286 285 285 284 284 284 284 283 283 283 282 282 282 282 282 282 282 282 281 281 281 280 280 280 279
277 278 279 279 280 280 279 278 276 275 272 272 274 276 271 267 276 276 277 278 279 281 280 279 279 278 278 278 278 278 278 279 279 279 279 280 280 281 281 281 282 283 284 284 284 284 284 285 286 285 286 286 286 286 286 286 287 286 285 285 284 283 283 283 284 284 284 285 284 285 284 285 285 285 285 284 284 284 284 282 282 282 282 282 283 282 282 282 281 281 281 280 280 280 279 279 279
280 278 279 278 277 277 279 275 275 271 269 270 271 275 270 272 278 275 274 276 277 277 278 277 278 277 277 277 277 278 278 278 278 278 279 279 280 280 281 282 282 281 282 283 283 283 284 285 285 285 284 285 285 286 286 285 285 285 284 284 283 282 283 282 282 282 283 284 284 284 284 284 284 284 284 284 284 284 283 283 282 282 282 282 282 282 281 281 281 281 281 281 280 279 279 278 279
280 280 280 278 275 274 273 273 270 268 266 272 275 276 275 268 275 274 275 275 275 276 277 277 278 277 277 277 277 277 277 277 277 277 277 278 279 279 280 280 280 281 281 281 282 282 283 284 284 284 283 284 285 285 285 285 284 284 284 284 283 282 281 281 281 281 282 282 283 283 283 283 284 284 284 283 283 283 283 283 282 282 282 282 282 281 281 281 281 281 281 280 279 279 279 279 280
281 279 277 277 277 274 271 270 272 269 269 273 276 276 276 267 268 273 274 275 276 277 276 276 276 276 276 276 275 275 275 275 275 275 275 275 276 276 277 277 277 278 279 280 280 281 281 281 282 282 281 282 283 284 284 284 284 283 283 283 282 282 282 282 281 281 281 281 283 283 283 283 283 283 283 283 283 283 283 283 283 282 282 281 281 281 281 281 281 281 280 280 280 280 279 279 278
279 277 277 272 268 268 266 269 265 266 268 270 271 274 271 272 276 278 280 277 276 276 276 275 275 275 275 274 274 274 274 274 274 274 274 274 274 274 275 275 276 276 276 277 278 280 281 281 281 281 280 281 281 282 283 282 281 282 282 282 281 282 281 281 281 281 281 282 283 283 283 283 283 283 283 283 283 283 283 283 282 282 281 282 282 281 282 281 281 280 280 280 279 279 279 279 278
278 277 275 271 267 266 266 267 262 263 269 270 269 272 269 272 275 276 275 275 277 276 276 276 275 274 273 273 273 273 274 274 274 274 273 273 273 274 274 274 275 275 275 276 276 277 278 279 280 280 280 280 280 281 281 281 281 282 281 282 281 281 281 281 281 281 282 283 284 284 284 284 284 284 284 284 285 284 284 284 283 283 282 282 282 282 281 281 281 280 280 279 279 280 280 279 279
277 279 279 275 271 267 264 264 264 267 267 269 271 269 265 267 273 274 276 276 276 276 276 276 275 274 274 273 273 273 273 273 273 273 273 273 273 273 273 274 274 274 274 275 275 276 276 276 276 277 277 278 279 279 280 279 280 280 280 281 280 280 281 281 281 282 283 283 284 284 284 284 285 285 285 286 285 284 284 283 282 282 282 282 282 281 282 281 281 280 280 280 280 280 280 280 279
278 277 278 274 273 275 271 270 265 261 266 269 269 269 270 272 275 276 276 276 275 275 274 274 273 274 273 273 272 272 272 272 273 273 273 273 273 273 273 273 273 274 274 274 274 275 275 276 276 276 276 276 277 278 278 279 279 280 279 279 279 280 280 280 281 283 283 284 284 284 284 284 284 285 284 284 283 283 283 282 282 282 282 282 281 281 281 281 280 280 279 279 279 280 279 279 279
277 278 273 275 279 278 273 273 274 273 269 269 268 270 274 274 275 274 275 275 274 274 273 273 272 272 272 272 272 272 272 272 272 272 272 272 273 273 273 273 273 273 273 273 274 274 275 275 275 275 276 276 276 276 277 277 278 279 279 279 279 279 279 279 279 280 281 282 282 283 282 283 283 283 283 284 283 283 283 282 282 282 281 281 281 281 281 281 280 280 280 279 279 280 280 279 279
277 271 277 281 280 279 274 269 268 267 266 268 269 268 267 267 267 274 272 272 273 272 272 272 272 272 271 271 271 272 272 272 272 272 272 272 273 273 273 273 273 273 273 273 274 274 275 275 275 275 275 275 275 276 276 276 276 277 277 277 278 278 279 279 280 280 281 281 280 281 281 281 281 282 282 283 282 281 281 282 281 281 281 281 281 281 281 281 281 280 280 280 280 280 279 279 279
280 278 283 276 272 271 275 270 266 265 262 262 263 263 263 267 271 270 270 270 271 271 271 270 270 270 270 270 271 271 272 272 272 271 272 272 272 272 273 273 273 274 274 274 274 274 274 274 274 274 274 274 274 275 275 275 275 276 276 275 275 276 276 277 277 278 278 278 278 279 280 280 280 279 280 281 281 281 281 281 281 281 281 281 281 281 281 281 281 280 280 280 280 280 279 279 279
282 282 280 279 277 272 270 272 270 270 267 265 267 263 266 268 267 269 269 270 272 270 269 269 269 269 270 270 270 270 271 271 271 271 271 272 272 272 272 272 272 273 273 274 274 274 273 274 273 273 274 274 274 274 274 274 274 274 274 274 274 275 275 275 275 275 275 275 275 276 277 278 279 280 280 280 280 280 280 280 280 281 281 281 281 281 281 280 280 280 280 280 280 280 279 279 279
272 274 271 274 271 276 276 274 271 270 268 267 266 264 262 268 271 271 271 271 271 270 269 269 269 269 270 270 270 270 271 271 271 271 271 271 271 272 272 272 273 273 273 273 273 273 273 273 273 273 272 273 273 273 273 273 273 273 273 273 273 273 273 274 273 274 273 274 274 274 275 275 276 276 277 278 278 278 279 279 280 280 280 280 280 280 280 280 280 279 280 280 279 279 279 278 278
277 275 272 275 271 269 269 269 273 271 270 268 267 267 267 270 273 272 271 272 271 270 269 269 269 269 270 270 270 271 271 271 271 271 271 271 271 271 271 271 272 271 271 272 272 273 273 273 273 273 273 272 272 272 272 272 273 272 272 272 272 273 273 273 273 273 273 273 273 273 273 274 274 274 275 275 275 276 277 277 277 277 278 279 279 279 279 279 279 278 278 278 278 278 278 278 278
Wind_Speed
1 3 3 1 2 2 3 3 2 3 1 6 1 2 4 2 2 2 2 2 1 2 2 0 2 2 5 3 9 8 5 6 7 7 7 2 2 5 5 2 4 7 7 5 5 4 5 6 10 13 15 14 14 13 12 12 12 11 11 11 11 10 10 11 10 9 9 9 8 9 9 8 8 9 10 10 12 14 15 15 16 16 17 17 16 17 15 15 15 15 15 15 15 16 17 17 16
2 2 4 3 3 4 1 1 1 2 1 5 6 1 4 2 0 4 8 8 4 0 1 1 1 1 3 3 1 1 4 5 2 1 4 4 6 4 3 4 6 12 8 5 5 5 4 4 10 11 14 15 14 14 13 13 13 12 12 12 11 11 11 11 10 10 10 9 9 9 9 9 9 10 11 12 14 16 17 16 17 17 17 16 16 17 16 14 15 15 15 15 16 16 16 16 15
1 1 5 3 3 2 1 1 4 2 5 10 5 6 2 2 5 9 8 7 6 1 1 1 0 0 0 1 3 4 8 2 1 1 3 4 1 6 6 3 5 7 7 5 5 5 4 5 12 11 13 15 14 14 14 13 13 13 12 12 11 11 10 10 10 10 10 10 10 9 10 10 10 11 12 13 14 15 17 17 17 18 17 16 16 16 16 15 15 15 16 16 16 16 15 14 14
3 3 3 3 2 2 2 1 1 5 6 4 3 4 3 6 9 11 6 6 5 1 0 1 2 0 3 6 5 4 3 3 4 5 2 4 5 4 3 5 7 6 4 4 4 4 3 7 12 10 13 15 15 15 14 14 14 13 13 13 12 11 11 11 11 11 11 11 10 10 10 11 11 11 12 13 15 15 16 17 16 17 18 17 16 16 16 14 15 17 16 16 16 15 15 14 14
3 1 3 2 3 1 2 3 3 4 9 3 4 5 5 7 10 7 5 4 5 3 2 1 0 0 1 2 1 2 3 0 1 3 1 2 2 2 3 4 6 7 6 5 4 4 3 8 11 11 13 15 16 16 15 15 15 14 14 14 14 13 12 12 11 11 10 10 11 11 11 10 11 12 13 15 16 16 17 17 17 17 18 18 17 17 16 15 15 16 16 17 15 15 15 14 14
4 0 0 2 3 2 3 1 2 5 4 5 3 4 7 6 6 4 6 6 5 3 4 0 2 0 0 2 2 2 1 2 1 1 2 3 2 2 3 3 5 6 5 4 4 4 4 7 10 11 12 14 14 15 15 15 15 15 15 15 15 14 13 12 11 11 11 11 11 11 11 11 11 13 14 16 16 17 17 17 18 18 18 19 18 17 17 16 15 16 16 15 15 15 14 14 14
2 2 1 2 1 2 4 3 5 5 8 6 4 5 9 3 4 1 6 5 1 2 3 3 2 0 1 1 1 3 2 2 1 2 5 1 2 1 3 3 4 5 4 4 3 4 5 7 8 10 13 16 16 16 16 15 15 15 14 15 14 14 14 13 11 10 10 11 11 11 11 11 12 14 15 16 17 18 19 19 18 18 17 17 18 17 16 16 15 15 16 15 16 15 14 15 15
1 2 1 3 3 1 3 3 5 5 5 7 3 6 7 2 3 0 6 1 5 3 3 1 2 1 5 2 1 1 2 5 4 3 2 1 2 3 3 4 6 4 4 3 3 3 6 9 9 11 14 15 16 16 16 15 15 16 15 14 15 15 15 15 14 12 11 11 11 11 12 13 13 14 16 17 19 19 19 19 18 18 17 17 17 17 17 16 16 16 15 15 16 15 14 15 15
1 2 1 3 4 1 1 6 5 2 4 1 6 7 2 3 3 1 5 3 3 3 2 3 4 3 3 1 4 1 3 2 2 2 1 2 3 3 3 4 6 5 4 4 4 3 4 9 11 12 13 15 15 16 16 16 15 15 15 15 14 15 16 16 16 13 12 11 11 12 12 13 14 15 16 18 18 18 19 19 18 18 17 16 17 17 17 16 16 15 16 16 15 14 14 14 15
1 1 3 2 2 8 4 5 0 5 6 6 6 7 5 2 3 4 6 5 8 1 3 3 4 6 0 3 3 2 1 3 0 1 1 2 1 2 2 3 4 6 4 3 3 3 3 7 9 10 10 11 13 14 14 15 15 14 15 14 14 15 15 15 17 15 13 11 11 11 12 13 14 15 16 16 18 19 18 18 18 18 17 16 16 16 16 16 15 15 14 15 15 14 13 14 14
3 4 2 2 3 6 9 7 6 4 3 3 4 7 8 2 2 2 4 6 1 4 1 2 1 6 1 3 4 0 3 2 3 5 3 2 1 2 2 1 3 4 5 3 3 3 3 4 7 7 9 9 9 10 11 11 12 14 13 13 14 15 15 15 16 16 13 13 12 12 12 14 14 15 15 16 17 17 18 17 17 17 17 16 15 16 15 15 15 14 15 15 14 14 14 13 13
1 2 1 5 7 8 6 6 6 6 6 3 4 4 3 6 2 1 3 2 2 4 6 7 3 6 2 2 3 1 5 2 3 1 2 1 2 1 2 2 3 2 3 4 2 2 2 2 3 4 9 8 9 9 7 9 11 12 12 14 14 13 14 14 15 15 14 12 12 12 12 12 13 14 14 14 15 16 15 16 16 15 16 16 15 15 15 15 15 14 14 15 13 14 13 13 12
2 2 2 1 5 3 3 4 5 4 3 3 6 4 2 4 4 7 5 4 2 1 5 11 2 4 3 3 2 5 1 4 2 3 2 2 2 2 2 2 2 2 2 3 4 3 2 2 2 3 4 7 7 7 8 8 9 12 12 13 13 12 12 12 13 14 13 13 12 11 11 11 12 13 13 13 13 14 12 14 14 14 14 15 15 14 14 15 15 14 14 15 12 13 13 12 12
3 5 5 5 2 2 3 4 0 3 5 4 4 2 2 2 4 4 3 2 4 3 3 3 2 3 2 2 3 2 5 2 5 4 3 4 3 3 3 2 2 2 1 2 3 3 3 2 2 3 3 4 5 5 9 10 12 13 12 12 12 12 12 11 11 12 12 11 10 7 7 9 9 11 11 12 11 12 11 11 11 13 13 13 13 13 13 13 14 13 15 16 13 11 12 12 11
4 2 2 1 2 0 2 5 4 5 7 3 4 1 0 4 1 2 4 4 9 3 0 1 3 4 5 6 7 6 6 7 7 4 6 4 5 4 4 3 2 1 1 1 2 3 3 3 3 3 3 3 4 4 4 7 11 11 12 13 12 13 11 11 13 13 13 13 13 13 13 13 13 15 14 13 9 8 7 7 9 13 12 11 11 12 11 10 10 11 15 15 14 12 11 11 12
2 4 2 2 5 5 4 3 0 3 6 3 4 1 0 4 1 1 4 3 2 2 0 4 1 3 1 5 1 2 2 7 6 6 7 6 4 3 3 3 3 2 1 2 3 2 3 4 3 4 4 4 4 5 5 4 6 10 10 11 11 12 12 13 14 13 13 12 12 13 13 10 9 10 13 9 10 10 8 4 2 10 12 11 11 11 11 10 9 10 14 15 14 13 11 11 12
2 1 2 0 10 3 3 2 4 8 3 5 5 1 3 2 0 2 0 1 1 2 1 1 3 2 3 1 1 3 3 6 7 7 7 5 5 4 2 2 3 2 2 3 3 4 4 5 5 5 4 5 4 7 5 4 6 10 9 12 14 14 14 13 15 14 12 11 10 10 10 8 6 6 7 7 9 8 10 8 4 1 9 11 11 10 10 10 9 9 12 15 15 14 12 12 14
2 2 2 9 3 5 3 6 7 2 2 2 4 4 3 4 2 1 1 1 0 1 1 4 2 3 1 3 2 2 6 9 8 11 8 7 6 6 5 5 5 6 5 4 3 4 5 4 6 6 5 5 4 5 5 5 5 8 8 8 9 11 11 10 9 8 8 8 9 8 6 6 6 6 6 7 7 8 8 9 7 8 12 10 6 8 13 12 9 9 14 16 17 14 12 6 7
4 1 2 13 4 5 8 4 8 1 5 4 4 1 4 6 1 2 1 2 1 4 3 1 5 7 1 2 3 8 8 8 9 10 11 11 10 12 10 7 7 6 7 5 5 5 5 5 4 6 6 5 6 6 6 6 6 6 7 8 8 8 8 9 7 7 6 7 6 6 6 5 6 6 6 7 7 9 9 11 12 8 6 9 8 6 10 13 11 17 15 17 17 14 7 5 6
4 5 9 8 4 4 7 5 6 7 5 7 6 7 4 3 1 0 3 8 5 7 4 3 4 9 9 3 3 6 7 9 8 11 12 11 10 11 10 11 9 10 9 7 7 4 4 5 5 4 8 7 5 5 7 7 6 6 5 6 7 7 7 6 6 6 6 6 6 6 6 6 7 6 8 11 8 6 7 10 11 12 12 12 11 6 9 9 10 14 14 14 11 5 5 5 5
3 3 7 3 5 6 4 7 8 8 4 3 5 4 7 3 5 3 2 4 8 5 5 8 9 12 14 5 6 7 8 9 8 9 10 10 9 8 11 12 12 10 8 6 4 7 6 5 6 5 3 7 7 4 5 7 8 7 6 6 6 6 6 6 5 6 6 6 6 6 6 6 6 5 5 6 6 5 6 5 6 6 6 6 8 6 6 7 8 6 6 7 6 5 5 5 5
1 7 2 4 1 4 4 7 8 6 7 4 4 4 9 1 0 3 5 12 12 6 8 11 12 10 11 10 9 7 8 11 10 10 13 15 16 14 9 8 5 5 5 8 9 6 7 6 5 6 7 4 6 8 6 5 6 7 7 7 7 6 6 6 5 5 6 6 6 6 6 7 6 5 5 5 5 5 6 5 5 5 6 6 5 6 5 6 6 5 5 6 5 5 5 5 4
9 4 4 4 4 6 2 4 5 6 4 5 2 5 2 1 4 3 6 14 8 6 8 10 13 11 1 5 8 7 10 12 13 15 15 14 13 13 12 10 10 11 9 9 8 7 7 6 6 5 7 7 5 2 5 7 6 5 6 6 7 7 6 7 6 5 5 6 6 6 7 6 6 5 5 5 5 4 5 5 4 4 5 5 4 7 6 5 5 5 5 5 5 5 6 5 5
4 7 1 5 4 11 3 5 3 2 6 6 4 2 3 3 10 3 7 14 9 5 5 5 3 1 8 8 12 14 17 17 17 18 17 19 20 21 17 11 9 5 7 9 9 9 8 9 7 7 6 7 7 5 5 4 5 7 6 5 5 5 6 7 6 5 5 5 5 5 5 6 7 6 5 5 5 5 5 4 4 5 5 5 4 6 6 5 5 5 5 5 6 5 6 5 5
8 7 3 7 5 6 4 7 6 5 6 6 4 6 10 5 7 3 16 15 4 7 8 6 2 3 4 8 11 11 12 11 12 13 9 9 11 6 3 7 6 8 10 12 10 9 10 9 8 9 7 7 6 7 7 5 4 4 6 5 5 6 6 6 6 6 6 5 4 5 6 6 5 6 6 5 5 5 5 4 4 5 5 5 5 5 6 6 5 5 5 5 5 5 5 5 5
4 8 4 5 5 5 4 5 5 6 4 1 4 9 8 9 7 10 22 15 6 8 6 5 4 5 7 11 14 14 14 15 16 11 16 14 5 6 10 9 9 10 15 11 9 10 9 9 10 10 9 9 7 7 7 7 7 7 5 6 6 5 5 6 6 5 5 5 5 4 4 6 6 7 6 5 6 5 5 4 5 5 5 4 5 6 3 6 6 5 5 5 6 5 6 4 5
1 3 3 5 6 5 4 4 4 2 3 1 4 8 6 3 4 17 5 6 7 5 7 5 7 10 10 9 10 11 14 16 17 17 7 4 8 11 12 8 10 15 9 10 11 11 10 10 10 10 8 8 8 8 7 7 7 8 8 6 5 6 6 6 5 5 5 5 5 5 4 4 6 6 7 6 5 6 5 5 5 5 5 4 4 5 4 5 5 5 5 6 5 6 5 4 5
4 3 7 8 4 4 6 5 7 3 6 5 8 8 7 4 2 20 1 4 2 6 7 8 8 10 9 10 9 10 10 13 9 5 12 11 12 14 14 14 16 13 12 15 12 9 9 12 12 10 9 8 9 9 8 8 8 7 7 7 6 5 6 6 5 5 5 4 5 5 5 5 5 5 6 6 6 6 5 5 5 5 5 4 5 5 6 5 5 5 5 5 4 5 5 5 4
2 3 7 7 7 9 4 5 4 3 7 2 5 4 9 5 13 23 3 1 1 4 7 7 7 8 7 7 7 6 11 10 5 8 12 14 14 12 15 15 14 12 11 10 7 8 12 12 12 11 9 9 10 10 8 7 7 7 8 8 7 6 6 5 6 5 5 5 5 5 5 6 5 6 5 6 5 5 5 5 5 4 5 5 5 5 6 6 6 6 6 5 6 6 6 5 5
2 0 1 8 6 10 7 2 5 5 4 6 5 12 12 16 19 18 1 3 1 0 5 6 7 6 7 7 8 9 9 6 9 13 14 13 12 9 12 10 10 11 9 7 7 11 11 8 8 8 10 11 11 8 7 7 7 6 5 6 7 7 7 6 6 5 5 5 5 6 6 6 6 5 7 6 5 6 5 5 5 5 4 5 5 6 6 5 6 6 6 6 5 6 6 4 6
5 3 1 6 5 10 1 2 0 3 2 5 5 11 14 17 15 3 0 1 5 5 6 8 8 8 7 6 6 8 9 8 12 11 7 5 5 6 10 7 10 11 7 8 14 15 10 8 8 8 10 10 9 9 9 8 7 7 6 6 6 7 7 7 6 6 6 6 6 6 6 6 6 6 6 7 6 6 6 6 6 5 5 5 6 4 6 5 5 6 6 7 5 5 5 4 5
0 4 10 1 6 12 2 2 3 4 2 3 6 9 15 18 11 2 0 2 1 4 6 7 7 7 8 7 7 8 10 5 7 8 8 6 6 8 10 12 10 9 12 11 8 7 11 10 10 9 10 11 11 10 9 8 8 7 7 6 6 7 7 6 6 6 6 5 5 6 6 6 7 7 7 6 7 6 6 6 5 5 5 5 5 5 5 6 5 5 3 6 8 5 6 4 5
1 7 11 9 3 9 6 3 2 4 1 0 9 8 9 14 4 4 1 4 2 4 6 6 6 8 8 8 8 8 8 8 8 10 11 11 11 11 11 11 11 12 10 8 10 9 9 10 10 10 12 13 12 11 9 8 8 8 7 7 8 8 7 7 6 6 6 6 6 6 6 6 6 7 7 6 6 6 5 5 5 6 5 6 6 5 5 5 6 6 4 3 4 6 6 6 4
6 1 7 3 6 3 5 4 2 2 2 4 4 6 16 18 3 1 2 1 3 5 7 7 7 7 8 7 7 8 8 9 11 11 12 12 12 13 12 10 9 9 10 10 9 11 11 10 10 10 9 10 9 10 9 8 7 7 6 6 7 8 7 6 6 6 6 6 7 7 7 6 6 6 6 6 5 5 5 6 5 6 6 6 5 5 5 4 5 6 6 3 4 6 6 7 6
6 4 7 9 5 6 10 2 3 5 1 2 4 8 17 18 12 6 9 3 2 8 10 8 8 8 9 7 8 8 9 9 13 12 10 9 12 11 8 7 7 8 8 10 9 9 8 9 8 9 9 9 8 8 7 7 7 6 5 6 6 5 4 4 5 6 6 6 7 7 7 7 7 7 6 6 6 6 6 6 6 6 5 6 6 6 6 5 5 5 6 5 4 3 5 4 5
8 6 6 4 6 6 4 4 4 2 5 7 7 11 16 19 16 3 6 8 9 11 8 8 8 9 10 10 8 8 9 12 12 8 5 7 7 6 6 6 6 7 8 9 10 9 10 10 9 9 9 10 7 7 7 7 7 7 7 4 4 4 4 4 3 4 5 6 6 7 7 7 7 7 7 7 7 7 7 7 7 6 6 6 7 7 7 7 8 7 5 6 6 4 4 4 5
1 2 3 7 6 9 2 3 5 2 3 10 14 12 16 20 16 5 7 6 6 12 12 11 10 9 9 10 10 10 9 12 8 3 5 6 7 6 6 7 8 7 8 10 11 12 13 13 12 13 10 10 10 10 9 10 9 7 5 8 8 7 6 5 4 4 4 4 6 6 7 6 7 8 7 8 8 7 7 6 7 6 6 6 7 8 7 6 5 5 6 4 7 6 2 4 3
4 5 5 9 6 12 5 6 1 4 4 8 5 9 16 18 14 9 9 7 11 13 15 12 12 11 10 10 12 11 11 5 5 5 4 4 4 5 5 6 6 9 9 10 14 16 14 12 13 11 10 11 12 12 11 10 9 10 9 8 7 7 7 8 7 6 6 5 7 7 7 6 7 8 7 7 6 7 7 6 7 7 7 6 5 5 5 5 6 7 7 5 2 6 5 6 7
4 5 5 8 10 5 8 6 8 4 3 12 8 12 17 16 15 8 6 9 11 11 12 14 9 9 9 10 10 10 8 10 7 7 6 5 4 4 5 6 8 12 11 14 13 9 10 11 12 11 11 12 11 10 9 10 5 4 5 5 8 5 3 4 5 5 6 7 6 6 6 6 7 6 7 7 6 6 7 7 7 7 7 7 7 7 7 7 7 8 8 8 6 2 3 3 8
5 6 5 11 7 2 7 4 2 1 6 3 1 5 14 11 6 11 11 11 11 11 8 10 8 10 14 10 6 7 8 9 10 9 9 7 5 4 4 6 8 5 6 7 9 13 11 12 11 12 11 10 8 8 7 5 5 5 5 6 5 5 4 5 5 5 6 6 7 7 6 7 6 6 6 6 5 6 7 8 7 7 7 7 8 8 8 8 8 7 7 7 8 7 4 6 7
5 8 9 9 6 8 9 5 2 2 4 3 7 9 14 8 5 6 6 3 5 10 8 9 11 8 4 6 7 5 7 8 11 12 11 9 9 7 6 6 3 6 8 9 9 9 7 7 6 6 6 7 6 7 8 8 8 7 7 7 6 6 5 5 5 4 5 6 6 6 6 6 6 5 6 6 6 7 6 6 7 7 7 7 6 7 8 9 9 8 9 8 10 9 8 5 7
5 8 12 12 10 10 8 6 4 4 5 3 6 4 8 1 4 6 6 4 3 3 4 9 11 5 8 7 6 7 8 7 9 11 11 11 10 9 7 4 4 4 4 2 3 4 4 6 6 6 6 6 7 8 10 9 9 10 9 9 8 5 5 7 9 10 9 9 8 6 6 6 6 6 5 5 5 5 6 6 6 7 7 6 6 6 6 5 7 8 10 9 9 5 8 7 8
4 7 10 14 11 8 6 5 2 3 3 2 1 5 11 2 5 3 4 3 7 7 6 11 6 8 8 8 9 8 9 9 8 7 9 11 11 8 5 4 2 1 1 2 3 4 4 5 6 6 7 6 7 8 9 9 8 8 11 11 10 11 10 6 5 5 7 5 6 7 6 6 6 7 6 5 5 4 4 5 6 6 6 6 5 5 7 8 8 8 6 7 8 6 6 7 11
6 3 6 5 6 6 7 5 6 7 1 3 1 2 4 14 8 4 2 3 7 9 13 3 8 8 7 8 9 10 11 10 10 10 11 12 12 12 9 4 2 2 3 4 4 4 5 6 7 7 7 7 7 9 9 9 10 8 8 7 7 7 7 6 6 5 5 6 7 7 6 5 5 5 6 5 4 4 4 4 4 5 5 5 6 6 8 6 5 4 6 6 5 6 8 8 8
6 1 5 4 6 7 3 3 6 2 2 9 3 1 2 5 7 1 1 5 8 13 7 6 6 8 10 10 11 11 10 11 11 12 14 14 14 13 12 11 9 5 4 4 4 5 5 6 7 6 7 8 7 9 9 8 8 9 8 7 6 4 4 5 5 5 6 6 7 6 6 6 5 5 5 5 4 4 3 4 5 5 6 6 6 5 4 5 7 8 7 7 8 7 6 4 5
4 2 4 3 3 2 2 4 3 1 1 10 4 4 2 9 11 3 1 2 8 6 5 4 9 8 10 11 11 11 10 11 11 11 11 13 13 13 11 12 13 11 9 4 4 5 5 6 7 7 7 7 7 8 8 7 7 7 7 7 7 5 6 5 6 6 6 6 7 7 6 6 6 6 5 5 5 5 5 4 5 6 6 6 6 6 5 6 7 8 9 9 7 7 5 6 7
3 3 1 1 3 2 2 4 3 3 3 8 9 7 6 6 5 4 3 1 1 6 2 3 6 10 11 9 10 11 12 12 12 12 13 13 12 14 14 16 14 14 11 11 9 5 3 5 5 6 5 5 6 7 7 7 6 6 7 7 7 7 6 7 7 6 7 6 8 7 7 7 6 6 6 5 5 5 6 7 7 7 6 5 5 6 8 8 7 7 6 6 7 9 7 7 5
0 1 2 2 3 3 2 3 2 2 8 2 7 9 8 7 5 3 4 1 2 1 5 6 8 10 8 9 10 12 12 12 11 13 15 15 17 18 17 17 16 15 15 14 11 9 8 5 4 6 3 4 4 5 5 5 5 4 4 5 7 7 8 8 9 9 8 8 7 8 5 5 5 5 5 5 6 6 6 6 6 6 6 6 7 7 6 6 5 5 6 7 7 7 5 6 7
3 2 1 2 3 4 3 2 2 5 8 1 2 2 3 11 8 6 11 4 5 6 5 5 6 8 9 10 12 10 10 12 13 13 13 14 15 15 16 16 16 15 13 13 13 11 9 8 9 8 8 6 2 2 5 4 4 5 5 5 5 6 6 7 7 7 7 8 7 7 7 7 6 6 6 7 7 8 7 7 7 7 7 8 7 6 6 6 6 6 6 7 6 7 8 7 7
4 3 3 2 2 3 5 2 0 5 6 3 1 1 3 2 5 3 2 5 5 6 8 7 9 9 10 10 10 11 12 13 12 13 14 14 14 13 14 14 14 13 15 14 14 12 10 11 10 9 8 8 6 7 5 2 2 2 1 2 4 5 5 6 6 8 7 6 6 8 9 9 9 10 9 10 10 10 9 9 9 9 8 7 7 8 7 7 7 7 7 7 8 8 6 8 8
5 0 5 5 5 3 3 4 4 5 5 2 3 1 5 2 1 3 5 4 7 7 7 8 8 8 8 8 9 12 13 13 11 12 13 13 14 14 13 13 13 14 15 15 14 13 12 13 12 12 12 11 10 7 5 5 4 3 4 4 3 2 0 3 5 5 6 6 6 7 7 6 7 7 8 9 7 8 7 6 6 7 7 7 7 7 6 6 6 6 6 7 6 6 7 7 7
0 1 3 1 5 4 4 2 3 1 2 3 2 4 4 2 2 5 3 7 10 8 9 9 11 9 8 11 13 12 12 12 12 13 13 14 13 13 14 14 14 14 15 15 16 14 14 12 12 12 12 11 11 11 9 6 4 4 5 4 3 3 3 3 3 3 1 2 6 8 8 7 7 7 6 6 8 8 8 8 8 9 7 7 6 7 7 6 6 7 6 6 7 5 7 8 8
1 2 2 3 1 4 2 1 1 1 1 7 3 5 4 2 5 3 5 9 9 8 9 11 11 10 11 12 11 11 11 11 12 13 12 14 13 14 13 15 14 14 15 15 15 14 14 14 14 15 14 14 14 12 11 10 10 9 8 7 5 5 4 3 3 2 2 2 3 4 3 3 3 4 5 6 7 7 8 8 8 8 7 7 6 7 7 7 6 7 7 7 8 7 7 9 7
5 0 2 1 1 2 2 3 2 1 4 5 3 6 4 2 4 2 5 7 7 9 8 9 10 10 12 10 11 11 11 10 11 11 12 12 12 13 13 13 14 15 14 15 16 13 13 13 14 15 16 16 14 13 14 13 12 12 12 12 12 10 7 5 4 4 3 4 4 4 3 3 3 3 3 2 1 1 3 4 5 5 5 5 6 6 7 7 6 6 7 7 7 6 7 6 7
1 2 0 1 2 3 1 2 4 2 2 4 2 1 3 4 5 6 8 9 4 6 7 9 11 10 10 9 10 10 10 10 11 12 12 12 13 13 13 13 13 13 13 14 13 14 15 15 14 15 15 14 13 12 12 13 13 10 10 12 13 12 12 11 10 9 9 8 7 6 4 2 3 3 1 0 1 1 1 2 3 3 4 6 6 6 6 6 6 7 6 7 6 6 7 8 7
1 1 0 0 1 4 2 3 1 2 4 1 3 2 5 2 2 5 8 6 1 4 6 9 8 9 8 8 9 10 10 10 10 11 11 12 13 13 13 14 14 14 14 13 14 14 17 14 15 15 15 15 16 17 14 15 13 13 13 13 14 12 12 12 12 11 11 11 9 9 8 7 6 5 3 0 1 2 3 3 3 4 3 3 4 4 5 6 6 7 7 7 7 8 9 9 8
1 1 1 2 0 1 1 1 3 4 4 3 4 6 3 0 1 3 2 4 5 5 7 6 6 7 8 9 8 8 10 10 10 10 11 12 12 13 13 13 12 12 12 12 14 15 14 14 15 15 16 16 17 15 14 13 12 14 15 15 14 13 14 12 13 13 12 12 11 10 10 8 7 9 7 6 4 2 2 3 4 5 6 6 6 6 6 6 6 7 7 8 7 8 9 8 8
2 3 5 5 1 3 2 7 2 1 2 4 2 8 1 2 3 2 4 4 6 6 7 7 7 7 7 7 9 9 9 10 10 10 11 11 12 12 13 12 12 13 14 15 13 13 16 16 14 14 14 15 14 14 14 13 12 13 14 14 14 12 12 12 13 13 13 12 11 11 10 9 10 8 9 8 8 6 5 3 2 3 3 4 5 6 6 6 7 7 8 6 7 7 8 8 7
Wind_Direction
311 29 19 278 125 55 54 12 100 288 85 255 270 183 245 259 253 335 267 340 217 247 202 39 89 124 194 205 213 209 206 161 207 147 219 244 314 294 256 276 161 141 158 152 153 166 172 180 165 166 171 170 174 171 165 158 163 165 163 163 165 165 166 168 168 166 166 169 165 164 162 159 159 155 145 144 148 141 137 136 131 128 127 124 121 118 121 120 116 114 113 109 105 100 97 95 92
356 28 35 356 26 70 310 118 83 305 20 284 244 116 247 292 198 232 237 234 209 204 353 96 27 114 39 80 147 54 274 218 176 228 304 248 296 268 222 264 180 160 161 154 154 160 164 195 166 163 172 170 174 170 165 160 163 164 162 161 163 163 161 162 163 165 168 169 166 164 163 160 158 152 147 146 145 139 133 133 130 127 123 120 121 120 117 121 117 114 111 108 104 100 94 94 95
101 80 73 51 20 66 134 46 243 189 193 232 267 215 309 344 239 246 233 232 243 324 118 66 46 45 224 7 300 171 253 54 283 233 258 338 178 203 216 225 194 162 152 148 153 154 162 173 161 167 173 173 173 170 166 163 165 163 158 158 157 158 159 161 165 166 164 164 162 164 164 160 155 152 147 146 140 139 133 134 131 127 121 119 121 116 116 121 119 114 109 107 104 100 98 98 98
105 80 133 116 169 23 143 40 126 150 212 215 270 279 233 231 246 243 255 258 278 351 344 283 189 217 154 210 219 41 275 279 192 161 211 197 222 172 194 189 170 151 144 148 150 145 162 168 157 164 173 174 173 173 167 166 165 162 160 158 157 158 159 160 161 159 158 159 159 160 155 156 156 147 148 145 139 138 134 133 132 124 119 124 123 117 114 118 118 118 113 106 102 104 104 105 102
69 37 135 126 120 200 143 204 168 144 227 170 204 255 238 233 242 256 267 284 287 211 185 249 319 190 198 214 323 191 255 246 271 217 261 259 262 232 187 180 162 156 155 155 153 145 158 176 164 167 181 181 176 173 171 168 166 164 162 160 154 155 159 160 158 157 158 157 159 155 155 154 155 149 147 142 138 132 129 126 125 125 124 124 121 122 116 118 116 119 113 110 114 111 111 109 105
71 39 17 116 201 177 52 294 246 219 226 174 201 242 231 233 230 247 278 286 265 196 184 77 207 219 286 228 186 222 212 174 320 243 203 233 228 235 178 168 154 154 160 159 152 155 161 174 178 173 184 179 180 178 176 174 170 167 163 160 153 154 151 152 153 154 157 159 155 154 155 151 147 149 144 140 137 132 129 128 126 124 123 119 111 119 121 123 123 122 119 117 114 112 111 109 104
189 94 357 36 355 50 210 212 229 220 253 164 218 246 252 240 228 296 295 337 224 225 184 213 91 42 301 276 323 217 139 145 182 245 175 254 162 177 152 149 140 144 149 159 154 148 168 172 180 187 182 182 178 180 178 176 172 170 165 161 151 149 147 141 142 150 158 156 156 154 152 148 149 148 143 140 136 130 128 126 121 118 119 123 121 119 123 125 126 121 120 119 116 113 112 111 106
117 163 263 122 230 56 240 228 238 159 270 183 225 237 254 202 206 162 272 105 278 188 216 243 173 137 254 80 242 249 286 192 231 322 290 205 143 161 153 146 140 143 150 155 155 159 167 174 184 183 187 185 183 180 180 177 175 173 166 160 152 146 142 136 135 140 147 147 154 153 149 147 148 145 141 139 134 132 127 126 127 124 124 127 125 125 126 126 127 124 120 118 117 116 117 112 106
349 94 44 73 225 28 321 231 250 229 287 268 261 243 290 228 190 193 277 226 332 245 233 205 189 111 252 19 214 255 281 242 274 220 283 161 167 162 154 156 152 152 158 161 165 160 173 181 183 183 186 188 191 182 181 179 178 173 165 162 155 148 142 140 136 138 140 139 140 143 143 146 143 142 141 138 135 130 131 128 130 127 124 127 127 128 130 129 127 124 123 119 116 116 114 111 108
39 102 239 186 121 231 238 273 210 226 212 236 233 254 236 232 232 195 244 301 232 321 261 203 177 201 142 250 297 292 239 343 87 89 233 173 180 139 150 167 153 149 152 158 157 161 170 179 184 181 179 190 192 188 181 184 177 169 164 159 156 150 144 142 136 136 139 134 134 135 140 142 144 141 139 140 134 134 129 131 130 127 127 128 128 128 127 124 125 124 121 118 118 115 113 112 109
219 17 125 168 224 233 227 248 244 285 246 285 309 248 235 217 184 228 197 238 346 204 7 113 44 237 105 262 215 256 305 339 147 183 182 159 90 123 141 129 145 155 148 142 122 120 144 164 176 174 165 175 189 192 191 177 174 165 156 153 160 150 148 143 135 135 134 134 135 130 135 138 138 137 136 136 136 133 133 133 132 130 128 125 126 127 124 122 123 125 124 118 118 118 116 113 108
244 169 115 229 218 206 223 218 239 252 277 329 283 248 214 197 115 221 237 240 272 234 221 154 230 150 178 315 289 281 330 308 205 126 108 64 115 95 126 116 132 130 139 136 102 93 89 99 138 140 160 164 188 188 181 184 171 156 156 158 153 151 143 140 132 129 133 132 126 125 126 129 131 126 132 133 132 132 133 134 131 131 129 127 126 128 126 124 124 127 125 121 122 119 118 116 110
198 110 99 158 229 200 185 232 243 246 303 267 225 259 145 139 184 210 231 220 238 237 271 214 47 149 228 201 258 316 333 237 175 128 83 71 61 48 73 84 79 92 101 115 121 102 96 94 97 120 159 163 165 170 164 160 165 156 164 157 150 142 138 137 131 128 123 128 125 114 113 119 127 123 132 129 132 131 128 130 131 133 132 132 130 132 129 128 128 130 128 120 118 119 119 118 110
176 181 132 242 69 189 165 224 212 238 258 248 241 239 158 161 228 210 126 226 237 185 231 190 137 167 265 7 311 317 245 183 140 125 96 76 75 74 81 64 69 75 75 125 131 122 102 93 99 109 122 140 162 169 165 169 168 161 155 145 142 137 132 134 130 120 111 107 107 85 95 102 117 121 122 124 119 109 104 118 125 133 129 131 131 128 132 133 135 136 123 117 115 117 118 115 106
220 147 107 148 263 27 241 216 192 207 252 223 252 124 275 249 167 132 176 223 265 206 267 155 179 113 244 168 269 228 220 164 143 133 113 100 94 103 101 93 92 78 55 109 121 136 138 118 116 113 118 130 160 160 169 183 170 156 147 145 142 139 136 127 126 113 109 112 104 91 76 67 57 53 56 49 51 75 110 121 147 138 135 132 133 127 126 132 135 133 118 117 120 120 118 114 99
154 91 94 211 243 198 258 198 103 223 257 231 263 149 221 278 182 133 256 185 251 332 100 208 166 206 230 167 197 253 222 141 136 120 111 105 90 79 104 124 125 130 166 161 161 162 155 143 131 124 128 142 157 152 160 161 159 138 135 133 121 110 105 105 102 96 95 96 100 103 98 89 77 73 73 55 46 43 57 63 86 138 135 137 132 129 129 132 137 136 120 116 119 119 116 110 92
81 81 291 213 259 162 244 187 154 245 236 258 280 317 247 277 287 242 98 71 244 269 311 246 228 31 208 200 218 272 139 124 121 119 114 123 134 132 119 144 158 187 200 203 184 173 175 162 151 141 153 153 165 146 132 124 123 115 106 102 105 107 105 99 101 101 103 101 98 95 90 87 84 79 83 94 73 55 50 47 44 58 143 143 129 130 126 122 137 133 127 117 112 116 114 96 83
108 211 181 252 205 195 194 204 191 213 200 270 293 218 199 279 313 248 69 18 92 302 278 299 308 258 204 261 297 161 137 139 149 146 156 154 162 168 178 191 183 197 192 199 210 185 178 185 168 153 149 151 155 135 125 127 127 112 111 108 108 109 101 100 94 102 99 100 90 90 90 92 95 87 83 73 71 71 72 64 47 63 90 100 90 134 138 132 140 123 121 114 102 86 68 44 57
184 193 167 251 151 236 166 201 215 202 247 233 267 287 187 239 177 283 262 279 268 256 267 322 303 294 219 20 121 131 146 149 164 171 167 172 181 186 186 184 199 192 202 197 199 196 190 177 171 155 148 155 158 144 130 123 120 120 117 113 109 101 106 102 106 104 104 105 104 103 102 102 93 91 88 88 78 62 50 58 54 48 98 121 129 107 87 109 120 86 90 90 88 80 67 55 66
236 190 244 245 204 238 211 200 231 207 244 269 279 276 204 251 162 79 223 252 249 233 241 295 284 262 253 139 141 147 158 163 176 178 184 188 190 189 189 195 200 206 199 193 190 191 194 177 170 168 158 151 154 149 142 134 130 123 116 120 119 115 108 108 106 108 108 109 108 106 104 101 98 95 83 80 74 63 52 49 52 57 50 50 62 53 83 98 96 83 80 80 78 75 78 67 73
276 167 232 225 214 237 230 209 235 245 202 244 250 283 308 246 226 166 211 281 254 246 230 211 228 237 246 166 164 167 167 171 184 193 193 199 204 205 201 199 198 197 194 175 178 196 191 181 169 160 172 154 143 139 139 146 146 137 136 130 122 122 118 116 114 111 112 113 108 107 105 102 97 94 95 91 85 82 75 68 58 61 69 72 70 75 63 63 63 65 65 70 77 87 85 71 76
104 220 238 201 102 236 236 220 226 224 227 235 276 309 257 68 42 224 200 241 254 198 233 222 230 234 231 176 180 170 174 180 189 193 202 201 199 205 206 212 207 202 177 190 197 186 191 186 179 167 159 178 163 155 156 140 137 141 142 142 133 126 126 123 123 122 119 118 120 119 111 109 105 102 92 86 81 84 83 77 73 80 83 84 80 94 76 78 76 84 88 85 81 78 81 77 68
250 222 246 224 205 236 219 229 228 209 253 234 262 236 304 273 273 234 204 229 243 198 214 219 221 236 236 117 144 176 187 192 194 200 202 205 211 214 210 201 191 196 193 203 190 194 184 181 180 168 169 163 169 145 140 150 150 136 134 145 140 140 136 132 130 128 125 128 127 131 126 119 111 110 101 97 94 89 92 90 85 80 95 91 90 106 94 85 95 95 97 92 90 90 83 80 77
259 256 332 281 213 241 219 257 282 261 212 242 219 347 295 280 291 221 230 242 236 243 259 267 285 113 140 144 182 185 191 193 200 205 200 202 201 206 203 193 201 192 194 202 198 192 182 188 178 168 175 169 163 153 143 147 142 142 142 137 124 130 134 136 136 132 130 128 133 129 123 130 134 126 119 114 110 93 97 92 96 91 91 91 89 103 109 96 96 101 105 102 97 90 95 82 81
250 267 235 260 250 243 240 252 266 273 260 249 301 281 259 227 245 296 260 260 201 234 236 227 139 125 152 172 188 201 206 212 215 217 219 229 225 222 211 209 200 195 205 204 197 188 190 183 173 178 175 176 164 157 155 148 139 128 139 143 142 150 142 138 137 133 133 130 128 130 135 130 126 128 132 127 113 106 105 102 100 101 97 106 107 93 114 121 111 114 110 110 105 101 95 91 89
224 244 246 271 272 295 278 300 272 266 281 209 268 257 264 261 287 265 253 262 223 224 233 212 166 180 196 200 197 194 203 206 212 209 213 213 193 193 220 208 200 203 212 200 189 196 186 178 180 184 180 174 163 161 161 158 158 151 151 151 149 146 142 139 138 140 135 141 141 142 137 139 146 145 136 134 131 127 119 109 110 113 114 121 117 116 119 122 129 115 111 111 112 107 100 100 99
183 280 234 259 267 309 298 236 289 313 248 157 232 267 270 269 140 267 266 233 216 202 226 217 192 212 215 213 211 208 203 210 206 210 206 190 200 207 219 210 205 216 200 204 200 198 184 176 187 186 180 170 162 170 165 166 165 164 159 149 151 155 143 135 141 135 138 148 146 139 132 134 133 136 138 140 127 130 129 128 127 124 121 123 120 115 107 117 115 115 123 124 119 110 97 94 98
320 296 322 296 297 264 258 299 276 284 291 200 212 258 272 273 193 252 134 1 178 185 222 219 212 222 223 224 217 217 219 225 218 183 203 192 203 206 209 204 211 206 197 207 202 187 180 190 187 186 179 168 169 174 168 168 172 164 152 148 157 145 138 143 143 144 151 143 141 145 140 136 133 131 137 138 139 139 141 136 138 138 135 122 118 121 115 107 109 103 94 98 98 100 98 82 80
274 13 305 295 326 303 256 244 259 161 256 151 160 296 280 239 241 255 254 295 105 180 233 238 230 234 232 233 234 233 225 228 203 210 219 210 212 209 213 211 207 201 214 208 187 182 194 191 190 185 175 169 177 178 173 165 164 163 164 162 151 147 141 146 152 158 152 145 147 148 140 136 136 141 140 139 137 134 135 136 139 137 135 126 120 123 117 113 105 104 92 95 94 95 95 86 81
10 109 230 320 325 293 276 196 230 189 244 148 112 272 259 252 248 262 171 245 160 180 262 260 259 250 239 228 227 234 236 221 215 219 219 215 215 212 222 217 209 207 203 191 177 195 197 194 186 176 181 179 181 173 166 167 171 165 163 157 151 150 157 157 159 153 151 151 155 154 147 147 140 139 140 136 134 138 140 143 142 135 137 131 128 131 127 131 122 117 125 114 110 109 108 112 104
280 261 62 249 327 257 296 168 317 178 215 170 172 249 265 263 260 284 143 308 236 228 246 253 254 263 269 266 257 249 247 221 230 237 248 247 230 221 224 216 209 207 193 188 196 199 184 185 180 186 182 179 175 177 174 175 166 162 161 161 158 157 158 162 160 158 161 162 157 157 154 152 146 143 146 143 144 142 145 147 150 149 142 139 136 139 131 124 126 131 140 121 108 103 105 104 108
284 353 256 320 202 276 317 320 162 180 312 142 166 245 253 265 273 65 341 46 110 252 268 275 280 280 277 274 269 267 264 249 255 254 247 237 224 225 217 219 207 204 205 203 197 170 188 186 185 186 179 182 183 179 174 169 171 166 166 164 159 160 159 164 166 169 163 156 159 152 155 151 151 152 153 151 150 159 155 155 151 140 147 140 133 132 132 134 130 126 120 136 129 122 119 101 102
338 207 272 257 212 268 355 291 229 239 283 137 179 247 282 274 301 123 52 59 47 307 290 287 281 279 279 273 264 265 274 265 250 242 234 219 219 220 219 217 204 206 204 192 191 185 187 186 185 185 183 185 182 178 171 168 167 168 169 169 166 165 169 172 170 156 151 157 155 157 157 154 155 157 156 158 150 159 156 148 146 147 147 142 140 138 133 134 138 132 123 121 123 139 132 126 112
257 231 237 244 242 279 274 304 347 20 148 266 252 232 252 262 184 266 286 63 317 293 274 277 275 267 267 272 273 265 259 263 262 249 237 220 225 220 219 209 202 198 199 196 190 188 188 182 185 188 183 184 180 178 173 166 165 158 162 169 170 173 174 170 158 154 160 159 157 158 156 154 156 157 159 157 148 152 150 145 142 148 144 139 136 136 130 131 133 139 131 99 120 128 135 138 134
243 225 258 272 254 240 255 296 262 16 344 233 287 265 268 270 273 274 287 327 310 273 269 262 269 276 274 263 261 261 258 255 251 248 243 233 231 229 218 205 195 192 192 191 185 183 175 181 178 186 178 178 176 168 157 148 145 150 148 160 173 171 148 138 147 157 159 155 163 154 152 154 157 161 160 158 154 155 149 146 148 153 147 143 138 134 139 142 137 138 137 112 81 85 121 129 132
236 214 233 266 272 264 234 230 276 201 265 276 251 255 267 273 274 297 311 288 278 271 275 278 264 258 263 265 255 248 247 252 251 253 251 240 234 228 210 197 194 184 182 181 181 178 183 180 182 182 180 171 160 152 148 150 155 162 158 136 138 162 139 135 142 152 146 160 161 156 159 163 158 163 165 166 164 161 159 159 155 154 154 150 149 150 160 163 158 144 135 127 114 85 75 111 129
271 184 235 259 268 276 222 235 246 158 272 246 251 254 260 268 272 279 254 274 287 282 281 272 266 256 254 255 257 254 247 244 253 234 227 232 229 215 201 188 189 182 182 178 179 187 187 187 177 188 177 167 167 167 172 169 170 161 161 181 178 165 159 139 139 150 163 156 160 160 162 169 164 166 171 169 173 166 162 153 150 156 157 160 164 172 162 153 146 138 129 127 135 129 111 136 140
251 272 273 276 251 273 255 266 206 227 186 274 237 259 261 267 279 275 280 296 281 271 273 270 260 257 258 257 263 261 257 279 305 311 284 257 238 221 198 189 171 176 195 180 188 193 190 183 186 182 169 179 181 181 176 178 183 182 170 174 162 166 162 172 173 170 170 162 167 166 166 170 172 172 172 177 170 163 155 155 159 164 165 170 160 141 143 145 141 141 142 125 152 149 150 167 169
260 241 266 283 268 262 275 243 246 246 163 264 270 263 267 267 272 281 263 257 263 261 255 264 275 279 272 267 262 273 289 288 301 283 290 289 272 246 205 198 198 198 187 192 195 180 182 186 191 181 183 180 185 178 172 180 164 143 146 146 160 150 158 161 158 162 152 159 157 160 164 169 172 173 172 173 167 164 161 159 171 168 169 159 150 153 154 157 163 160 164 155 146 95 103 179 186
243 265 271 251 267 285 298 270 353 252 181 247 57 297 277 270 266 262 250 235 245 259 267 273 261 259 258 266 294 305 308 313 312 311 305 306 301 268 230 219 213 197 185 191 184 188 187 192 188 183 184 182 174 172 160 138 125 112 98 120 113 120 149 136 128 138 149 150 166 170 174 168 169 167 165 166 159 169 171 174 165 165 170 171 165 161 168 168 165 166 167 165 154 150 161 192 212
226 224 238 257 255 228 217 258 360 263 277 247 287 285 281 266 265 272 274 279 274 271 281 280 272 256 308 337 332 348 319 323 318 322 320 325 320 295 252 243 199 200 200 198 194 190 193 192 182 176 164 167 157 147 143 133 122 105 103 92 98 86 83 118 124 157 172 173 154 172 176 150 153 152 159 170 174 177 174 168 167 169 167 172 168 168 176 181 177 174 172 165 180 168 168 176 208
266 225 214 234 239 250 247 284 350 1 325 237 183 319 276 3 217 250 283 332 295 271 262 268 269 357 18 2 350 349 352 344 335 329 324 318 307 303 295 278 225 223 224 211 181 176 156 153 153 150 143 144 147 146 144 145 149 145 140 140 150 155 154 164 184 182 176 182 187 151 138 148 152 151 157 169 174 172 176 174 165 165 171 174 180 178 169 155 174 178 187 179 183 198 171 160 191
257 267 194 221 233 238 259 262 95 299 254 307 90 201 282 259 278 277 271 283 278 300 286 269 360 19 18 8 4 354 353 349 349 346 343 346 338 325 315 318 319 316 350 107 110 127 110 124 132 140 142 138 139 146 149 148 155 165 169 172 173 178 178 197 174 161 168 160 138 155 146 146 155 151 158 168 174 179 174 172 172 174 173 175 172 163 176 187 185 188 176 182 192 171 149 177 190
244 241 174 186 206 217 231 220 190 239 283 269 169 134 235 296 288 223 271 313 289 285 268 343 31 27 18 16 8 5 360 1 360 358 2 5 0 356 343 4 49 98 106 95 105 109 125 131 135 139 139 142 149 151 159 164 165 170 171 176 176 180 185 173 160 148 137 133 138 150 147 144 145 146 151 163 168 174 171 172 169 169 172 176 175 190 191 185 167 173 185 192 177 184 185 187 190
218 249 160 200 204 219 224 172 208 227 34 286 147 162 323 253 269 67 57 303 277 265 309 30 26 30 20 15 13 6 5 6 8 8 6 7 7 3 5 6 357 24 60 104 114 121 122 128 128 132 140 145 154 158 161 171 168 170 168 160 164 170 136 134 127 126 137 143 139 142 146 147 143 144 144 151 163 171 178 176 173 177 181 186 187 192 186 175 182 179 181 187 196 196 198 193 167
275 132 85 75 83 74 169 187 172 289 93 267 169 186 218 276 277 313 330 247 272 301 335 45 42 27 26 22 10 11 13 13 14 15 11 14 11 9 9 19 20 11 4 30 77 104 114 126 132 136 144 150 154 160 161 164 159 154 160 169 163 151 131 125 131 138 141 150 150 152 150 155 158 157 154 154 163 172 173 174 185 193 195 188 184 188 180 182 191 195 196 196 194 194 196 198 199
103 128 177 341 44 52 33 78 102 58 250 252 162 211 174 285 288 229 177 226 240 321 11 74 35 29 29 24 22 17 19 17 15 11 16 16 18 20 19 26 18 15 14 16 10 22 83 114 127 125 135 133 149 155 156 161 157 162 171 170 162 155 148 140 135 142 146 155 162 166 166 165 164 166 161 163 171 181 183 180 188 196 192 186 184 188 196 196 196 195 192 190 194 197 199 200 209
157 209 190 7 264 26 36 347 39 185 260 238 189 196 183 209 291 282 237 43 1 352 313 9 32 38 30 26 24 25 24 23 19 21 19 16 18 20 22 24 20 16 18 14 13 13 15 21 74 105 85 113 128 135 143 154 156 164 164 160 165 165 155 159 162 165 169 168 166 166 162 149 161 163 172 176 179 178 184 193 193 190 190 188 198 197 198 195 188 186 189 193 203 204 198 195 207
120 104 109 178 268 38 314 45 271 202 234 243 5 72 22 244 250 297 290 37 18 23 44 64 72 50 40 34 31 29 28 28 29 26 23 24 24 20 22 21 22 22 17 15 14 14 19 31 26 37 29 20 39 98 144 145 147 174 172 170 163 154 161 163 166 163 170 169 168 161 165 172 160 168 191 189 197 188 189 194 192 195 200 201 199 190 196 186 186 188 193 199 199 199 201 197 201
121 154 151 126 269 226 242 215 256 313 291 271 249 289 251 277 291 303 338 37 44 61 58 57 60 56 47 41 34 34 34 33 31 31 30 30 26 24 25 26 26 24 22 23 21 20 21 27 27 47 33 30 29 26 16 13 4 4 13 152 157 156 169 166 172 168 176 174 172 177 181 180 179 191 189 200 199 193 200 202 198 203 202 195 192 197 192 189 184 189 191 197 202 206 194 200 208
210 68 160 185 156 165 241 187 218 224 228 292 262 105 230 112 227 65 75 61 55 52 54 55 54 53 55 50 46 41 35 29 23 28 28 27 27 28 28 28 29 26 26 27 26 24 28 28 29 33 29 17 22 24 38 37 32 35 38 22 16 357 86 175 179 170 166 170 182 182 190 190 194 202 195 204 180 189 199 198 202 201 201 199 193 194 192 187 188 189 196 204 207 197 201 201 210
188 185 73 70 244 112 244 187 172 250 309 316 177 207 195 161 92 82 76 66 51 40 48 45 46 41 41 44 39 34 32 27 25 25 25 24 23 26 30 30 28 28 28 30 29 26 29 28 33 38 38 26 24 20 18 21 32 53 41 52 50 70 52 22 8 356 331 216 189 184 189 194 205 200 200 177 185 179 187 194 198 204 201 198 195 196 194 190 189 193 202 200 211 194 203 206 212
250 131 177 206 143 140 274 298 220 90 62 243 141 296 276 288 88 53 68 56 41 42 40 42 40 36 41 42 33 31 29 30 28 29 26 22 22 25 30 29 27 26 29 30 30 28 29 30 32 35 35 34 30 28 26 19 16 30 23 31 36 51 55 62 64 55 47 32 2 332 321 278 230 208 205 193 189 188 190 194 197 204 202 197 195 196 197 200 194 198 203 204 213 203 208 214 210
82 80 231 145 148 125 129 243 332 146 218 268 120 212 280 55 260 193 61 39 45 29 38 43 43 37 44 36 34 33 35 35 34 30 27 26 24 26 26 30 31 30 28 30 30 29 33 35 34 38 36 35 30 34 35 31 30 32 27 25 22 19 21 35 51 60 58 54 32 35 30 29 10 1 11 358 335 217 198 190 196 203 206 200 202 199 200 203 198 205 209 215 217 204 216 218 216
185 202 303 280 276 313 62 74 272 240 238 268 278 254 262 179 237 2 334 3 36 41 38 39 36 35 38 33 32 31 25 26 28 25 24 25 27 26 27 27 27 31 32 32 31 33 36 36 35 38 39 38 38 39 39 40 38 39 37 36 33 29 27 26 20 25 31 39 27 23 32 17 29 32 56 59 112 192 212 235 230 227 213 213 207 208 201 204 203 213 211 219 217 210 219 222 219
87 48 232 130 128 231 144 216 240 97 273 69 293 75 241 214 234 317 298 335 105 87 56 54 52 46 41 38 35 32 29 29 27 29 28 27 28 27 24 24 24 25 28 28 30 33 36 34 35 35 37 37 37 36 35 40 36 39 39 39 36 36 36 35 33 33 35 32 23 17 13 13 7 11 17 107 152 188 204 212 215 222 236 238 234 232 219 218 210 219 217 218 219 212 222 226 225
335 30 302 6 292 243 105 320 171 238 260 250 281 295 274 237 320 281 306 28 59 87 90 73 63 54 53 47 43 41 39 35 34 32 28 28 26 22 21 22 24 25 28 28 30 32 32 33 33 31 34 34 36 32 34 35 34 37 40 39 36 34 33 33 36 35 38 32 27 23 20 11 23 24 8 11 360 332 257 217 206 208 213 218 215 219 212 215 220 229 228 227 224 217 222 227 223
234 181 230 206 190 309 316 268 80 228 182 245 211 271 227 70 355 37 64 77 83 86 94 89 66 61 56 51 48 44 43 41 38 36 33 29 26 24 23 23 23 26 25 25 25 27 30 32 30 30 33 34 32 31 31 31 33 35 37 36 36 35 33 33 35 33 34 29 27 25 16 19 30 21 22 23 21 8 356 333 288 252 238 230 227 222 214 204 210 216 223 220 225 224 227 230 221